World > North America > United States > Pennsylvania

Hourly Buttonwood, PA Regional Weather

Feedback E-mail the Weather

Quick WX

Buttonwood, PA Weather Maps

°F °C°F °C
Buttonwood Weather Map
UTC Time: 6/26/2022, 08:06
Your Time:

Buttonwood, PA Regional Weather

Expires:202206260900;;207460
ASUS41 KCTP 260803
RWRCTP

REGIONAL WEATHER ROUNDUP
NATIONAL WEATHER SERVICE STATE COLLEGE PA
400 AM EDT SUN JUN 26 2022

Note: "fair" indicates few or no clouds below 12,000 feet with no 
significant weather and/or obstructions to visibility.

* = STATION THAT DOES NOT REPORT PRECIPITATION /E.G. RAIN...SNOW...ETC/
    THUNDER OR FOG.


PAZ004>006-010>012-017>019-024>028-033>037-041-042-045-046-049>053-260900-
CENTRAL PENNSYLVANIA
  
CITY           SKY/WX    TMP DP  RH WIND       PRES   REMARKS
BRADFORD       PTCLDY    69  60  73 SE5       30.10F                  
ST MARYS       MOSUNNY   70  64  83 S5          N/A                   
DUBOIS         CLEAR     69  63  81 SE5       30.08F                  
CLEARFIELD     CLEAR     62  60  93 CALM      30.10F                  
JOHNSTOWN      PTCLDY    67  63  87 S6        30.13F                  
SOMERSET       FAIR      64  61  88 CALM      30.14S                  
ALTOONA        CLEAR     68  64  87 S3        30.11F                  
STATE COLLEGE  PTCLDY    69  63  81 CALM      30.10S                  
REEDSVILLE     FAIR      66  66 100 CALM      30.09                   
WELLSBORO      FAIR      66  61  82 CALM      30.12F                  
WILLIAMSPORT   CLEAR     67  61  81 NE3       30.08S                  
SELINSGROVE    CLEAR     64  63  96 CALM      30.10S                  
FT INDIANTOWN  CLEAR     65  63  95 CALM      30.10S                  
CAPITAL CITY   MOCLDY    77  66  68 VRB3      30.10S                  
HARRISBURG     PTCLDY    74  66  76 S7        30.10S                  
YORK           MOCLDY    72  65  78 CALM      30.11F                  
$$


SKY/WX - Weather  TMP - Temperature  DP - Dew Point  RH - Humidity
WIND - Wind Direction/Speed PRES - Barometric Pressure VSB - Visibility
WCI - Wind Chill Index E13G22 Wind - East Wind 13 mph/Gusts of 22 mph

Trending Headlines

Buttonwood Radar Loop



Buttonwood Quick Facts


National Two Day Weather Forecast


E-mail the Buttonwood Weather Forecast

Voice your opinion or tell us about page issues...